| time (UTC) | temp F | wind direction | speed knots | gust knots | rain 1hr in | rain 24hr in | rain mn in | humidity % | barometer mb |
| 20260901154733 | 65 | 306 | 2.6 | 10.4 | 0.00 | 0.01 | 0.01 | 86 | 1017.3 |
| 20260901154233 | 65 | 291 | 3.5 | 8.7 | 0.00 | 0.01 | 0.01 | 86 | 1017.1 |
| 20260901153735 | 65 | 302 | 3.5 | 6.1 | 0.00 | 0.01 | 0.01 | 86 | 1017.1 |
| 20260901153234 | 65 | 295 | 4.3 | 7.8 | 0.00 | 0.01 | 0.01 | 85 | 1017.1 |
| 20260901152735 | 65 | 285 | 2.6 | 5.2 | 0.00 | 0.01 | 0.01 | 83 | 1017.2 |
| 20260901152234 | 65 | 288 | 4.3 | 7.8 | 0.00 | 0.01 | 0.01 | 81 | 1017.3 |
| 20260901151734 | 65 | 320 | 2.6 | 7.0 | 0.00 | 0.01 | 0.01 | 79 | 1017.3 |
| 20260901150734 | 65 | 295 | 1.7 | 7.0 | 0.00 | 0.01 | 0.01 | 82 | 1017.4 |
| 20260901150233 | 65 | 298 | 3.5 | 8.7 | 0.00 | 0.01 | 0.01 | 83 | 1017.3 |
| 20260901145233 | 66 | 301 | 2.6 | 7.0 | 0.00 | 0.01 | 0.01 | 84 | 1017.6 |
| 20260901144235 | 66 | 298 | 3.5 | 10.4 | 0.00 | 0.01 | 0.01 | 83 | 1017.8 |
| 20260901143733 | 66 | 295 | 1.7 | 12.2 | 0.00 | 0.01 | 0.01 | 85 | 1017.8 |
| 20260901143234 | 65 | 301 | 4.3 | 12.2 | 0.00 | 0.01 | 0.01 | 86 | 1017.7 |
| 20260901142734 | 65 | 303 | 4.3 | 10.4 | 0.00 | 0.01 | 0.01 | 86 | 1017.8 |
| 20260901142234 | 65 | 295 | 4.3 | 10.4 | 0.00 | 0.01 | 0.01 | 86 | 1017.9 |
| 20260901141736 | 65 | 304 | 3.5 | 8.7 | 0.01 | 0.01 | 0.01 | 87 | 1017.8 |
| 20260901141234 | 65 | 301 | 3.5 | 7.8 | 0.01 | 0.01 | 0.01 | 88 | 1017.8 |
| 20260901140734 | 65 | 293 | 2.6 | 6.1 | 0.01 | 0.01 | 0.01 | 88 | 1017.9 |
| 20260901140234 | 64 | 285 | 2.6 | 7.0 | 0.01 | 0.01 | 0.01 | 88 | 1017.7 |
| 20260901135734 | 64 | 286 | 1.7 | 5.2 | 0.01 | 0.01 | 0.01 | 89 | 1017.7 |
| 20260901135234 | 64 | 35 | 1.7 | 5.2 | 0.01 | 0.01 | 0.01 | 90 | 1017.8 |
| 20260901134235 | 63 | 251 | 0.9 | 2.6 | 0.01 | 0.01 | 0.01 | 90 | 1017.8 |
| 20260901133734 | 63 | 309 | 1.7 | 5.2 | 0.01 | 0.01 | 0.01 | 90 | 1017.9 |
| 20260901133234 | 62 | 288 | 0.9 | 2.6 | 0.01 | 0.01 | 0.01 | 91 | 1018.0 |
| 20260901132235 | 62 | 289 | 0.9 | 2.6 | 0.01 | 0.01 | 0.01 | 88 | 1018.2 |
| 20260901131235 | 63 | 307 | 1.7 | 13.0 | 0.00 | 0.00 | 0.00 | 84 | 1018.3 |
| 20260901130735 | 65 | 295 | 7.8 | 14.8 | 0.00 | 0.00 | 0.00 | 81 | 1018.3 |
| 20260901130236 | 66 | 306 | 2.6 | 7.8 | 0.00 | 0.00 | 0.00 | 81 | 1018.2 |
| 20260901125235 | 66 | 299 | 3.5 | 13.9 | 0.00 | 0.00 | 0.00 | 79 | 1018.0 |
| 20260901124735 | 66 | 314 | 2.6 | 8.7 | 0.00 | 0.00 | 0.00 | 79 | 1017.9 |
| 20260901124235 | 66 | 291 | 5.2 | 12.2 | 0.00 | 0.00 | 0.00 | 78 | 1017.9 |
| 20260901123236 | 67 | 308 | 4.3 | 12.2 | 0.00 | 0.00 | 0.00 | 79 | 1017.8 |
| 20260901122735 | 67 | 288 | 4.3 | 11.3 | 0.00 | 0.00 | 0.00 | 79 | 1017.8 |
| 20260901122236 | 67 | 288 | 6.1 | 12.2 | 0.00 | 0.00 | 0.00 | 78 | 1017.8 |
| 20260901121735 | 67 | 331 | 5.2 | 11.3 | 0.00 | 0.00 | 0.00 | 77 | 1017.8 |
| 20260901120735 | 67 | 338 | 3.5 | 7.0 | 0.00 | 0.00 | 0.00 | 78 | 1017.8 |
| 20260901120236 | 67 | 300 | 2.6 | 10.4 | 0.00 | 0.00 | 0.00 | 80 | 1017.8 |
| 20260901115735 | 67 | 303 | 4.3 | 7.8 | 0.00 | 0.00 | 0.00 | 79 | 1017.8 |
| 20260901115235 | 66 | 291 | 4.3 | 13.9 | 0.00 | 0.00 | 0.00 | 80 | 1017.7 |
| 20260901114236 | 67 | 297 | 4.3 | 7.8 | 0.00 | 0.00 | 0.00 | 80 | 1017.8 |
| 20260901113735 | 66 | 292 | 4.3 | 8.7 | 0.00 | 0.00 | 0.00 | 80 | 1017.8 |
| 20260901113235 | 66 | 306 | 4.3 | 10.4 | 0.00 | 0.00 | 0.00 | 79 | 1017.8 |
| 20260901112735 | 67 | 325 | 0.9 | 11.3 | 0.00 | 0.00 | 0.00 | 79 | 1017.9 |
| 20260901112235 | 67 | 289 | 2.6 | 6.1 | 0.00 | 0.00 | 0.00 | 79 | 1017.8 |
| 20260901111237 | 67 | 197 | 1.7 | 6.1 | 0.00 | 0.00 | 0.00 | 79 | 1017.8 |
| 20260901110737 | 67 | 303 | 2.6 | 5.2 | 0.00 | 0.00 | 0.00 | 78 | 1017.8 |
| 20260901110236 | 67 | 293 | 1.7 | 5.2 | 0.00 | 0.00 | 0.00 | 78 | 1017.9 |
| 20260901105737 | 67 | 325 | 3.5 | 7.8 | 0.00 | 0.00 | 0.00 | 78 | 1017.9 |
| 20260901105237 | 67 | 333 | 1.7 | 5.2 | 0.00 | 0.00 | 0.00 | 78 | 1017.9 |
| 20260901104737 | 67 | 299 | 2.6 | 5.2 | 0.00 | 0.00 | 0.00 | 77 | 1018.0 |
| 20260901104237 | 67 | 299 | 2.6 | 6.1 | 0.00 | 0.00 | 0.00 | 78 | 1017.9 |
| 20260901103238 | 67 | 300 | 1.7 | 4.3 | 0.00 | 0.00 | 0.00 | 78 | 1017.8 |
| 20260901102736 | 67 | 317 | 1.7 | 6.1 | 0.00 | 0.00 | 0.00 | 78 | 1017.8 |
| 20260901101736 | 66 | 304 | 1.7 | 6.1 | 0.00 | 0.00 | 0.00 | 80 | 1017.9 |
| 20260901101236 | 66 | 270 | 2.6 | 7.0 | 0.00 | 0.00 | 0.00 | 79 | 1017.9 |
| 20260901100738 | 66 | 311 | 4.3 | 7.8 | 0.00 | 0.00 | 0.00 | 79 | 1017.9 |
| 20260901100237 | 67 | 295 | 2.6 | 10.4 | 0.00 | 0.00 | 0.00 | 79 | 1017.9 |
| 20260901095736 | 67 | 303 | 3.5 | 7.0 | 0.00 | 0.00 | 0.00 | 79 | 1017.9 |
| 20260901095236 | 67 | 244 | 1.7 | 5.2 | 0.00 | 0.00 | 0.00 | 80 | 1018.0 |
| 20260901094236 | 66 | 208 | 0.9 | 2.6 | 0.00 | 0.00 | 0.00 | 81 | 1017.8 |
| 20260901093736 | 66 | 310 | 2.6 | 5.2 | 0.00 | 0.00 | 0.00 | 81 | 1017.9 |
| 20260901093236 | 65 | 285 | 2.6 | 5.2 | 0.00 | 0.00 | 0.00 | 81 | 1017.8 |
| 20260901092738 | 65 | 289 | 1.7 | 5.2 | 0.00 | 0.00 | 0.00 | 82 | 1017.8 |
| 20260901092237 | 65 | 314 | 1.7 | 5.2 | 0.00 | 0.00 | 0.00 | 82 | 1017.8 |
| 20260901091736 | 65 | 300 | 0.9 | 6.1 | 0.00 | 0.00 | 0.00 | 82 | 1017.8 |
| 20260901091237 | 65 | 299 | 2.6 | 6.1 | 0.00 | 0.00 | 0.00 | 82 | 1017.8 |
| 20260901085738 | 65 | 299 | 2.6 | 5.2 | 0.00 | 0.00 | 0.00 | 82 | 1017.8 |
| 20260901085237 | 65 | 273 | 1.7 | 5.2 | 0.00 | 0.00 | 0.00 | 83 | 1017.8 |
| 20260901084738 | 65 | 258 | 0.9 | 4.3 | 0.00 | 0.00 | 0.00 | 83 | 1017.8 |
| 20260901084238 | 64 | 264 | 1.7 | 5.2 | 0.00 | 0.00 | 0.00 | 84 | 1017.8 |
| 20260901083237 | 64 | 300 | 1.7 | 4.3 | 0.00 | 0.00 | 0.00 | 85 | 1017.6 |
| 20260901082739 | 63 | 281 | 0.9 | 5.2 | 0.00 | 0.00 | 0.00 | 85 | 1017.5 |
| 20260901082237 | 63 | 298 | 0.9 | 2.6 | 0.00 | 0.00 | 0.00 | 86 | 1017.6 |
| 20260901081737 | 62 | 257 | 0.0 | 4.3 | 0.00 | 0.00 | 0.00 | 87 | 1017.6 |
| 20260901080738 | 62 | 292 | 1.7 | 5.2 | 0.00 | 0.00 | 0.00 | 88 | 1017.8 |
| 20260901080236 | 61 | 291 | 0.9 | 5.2 | 0.00 | 0.00 | 0.00 | 88 | 1017.9 |
| 20260901075737 | 61 | 290 | 0.9 | 2.6 | 0.00 | 0.00 | 0.00 | 89 | 1018.0 |
| 20260901075238 | 60 | 297 | 0.9 | 5.2 | 0.00 | 0.00 | 0.00 | 90 | 1017.9 |
| 20260901074237 | 60 | 290 | 1.7 | 4.3 | 0.00 | 0.00 | 0.00 | 90 | 1018.1 |
| 20260901073737 | 59 | 289 | 0.0 | 1.7 | 0.00 | 0.00 | 0.00 | 91 | 1018.1 |
| 20260901073237 | 59 | 284 | 0.0 | 1.7 | 0.00 | 0.00 | 0.00 | 91 | 1018.0 |
| 20260901072238 | 59 | 275 | 0.0 | 0.9 | 0.00 | 0.00 | 0.00 | 90 | 1017.9 |
| 20260901071737 | 59 | 138 | 0.0 | 0.0 | 0.00 | 0.00 | 0.00 | 91 | 1017.9 |
| 20260901071238 | 59 | 141 | 0.0 | 0.9 | 0.00 | 0.00 | 0.00 | 91 | 1018.0 |
| 20260901070738 | 58 | 109 | 0.0 | 0.0 | 0.00 | 0.00 | 0.00 | 92 | 1018.0 |
| 20260901065737 | 57 | 107 | 0.0 | 0.0 | 0.00 | 0.00 | 0.00 | 92 | 1017.9 |
| 20260901065238 | 57 | 107 | 0.0 | 0.0 | 0.00 | 0.00 | 0.00 | 92 | 1017.9 |
| 20260901064737 | 57 | 145 | 0.0 | 0.9 | 0.00 | 0.00 | 0.00 | 92 | 1017.9 |
| 20260901064239 | 56 | 112 | 0.0 | 0.0 | 0.00 | 0.00 | 0.00 | 92 | 1017.9 |
| 20260901063737 | 57 | 112 | 0.0 | 0.9 | 0.00 | 0.00 | 0.00 | 91 | 1018.0 |
| 20260901063238 | 57 | 127 | 0.0 | 0.0 | 0.00 | 0.00 | 0.00 | 92 | 1017.9 |
| 20260901062237 | 57 | 133 | 0.0 | 0.9 | 0.00 | 0.00 | 0.00 | 92 | 1018.0 |
| 20260901061738 | 57 | 24 | 0.0 | 0.9 | 0.00 | 0.00 | 0.00 | 91 | 1018.0 |
| 20260901061237 | 57 | 6 | 0.0 | 0.9 | 0.00 | 0.00 | 0.00 | 91 | 1018.0 |
| 20260901060738 | 57 | 6 | 0.0 | 0.9 | 0.00 | 0.00 | 0.00 | 91 | 1018.0 |
| 20260901060238 | 57 | 323 | 0.0 | 0.9 | 0.00 | 0.00 | 0.00 | 91 | 1018.0 |
| 20260901054740 | 57 | 311 | 0.0 | 1.7 | 0.00 | 0.00 | 0.00 | 91 | 1017.9 |
| 20260901054238 | 57 | 307 | 0.0 | 1.7 | 0.00 | 0.00 | 0.00 | 91 | 1017.9 |
| 20260901053739 | 57 | 307 | 0.0 | 0.9 | 0.00 | 0.00 | 0.00 | 91 | 1017.9 |
| 20260901053238 | 57 | 306 | 0.0 | 1.7 | 0.00 | 0.00 | 0.00 | 91 | 1017.8 |
| 20260901052238 | 57 | 285 | 0.0 | 0.9 | 0.00 | 0.00 | 0.00 | 91 | 1017.7 |
| 20260901051739 | 57 | 299 | 0.9 | 1.7 | 0.00 | 0.00 | 0.00 | 91 | 1017.7 |
| 20260901051239 | 57 | 297 | 0.9 | 1.7 | 0.00 | 0.00 | 0.00 | 91 | 1017.6 |
| 20260901050740 | 57 | 299 | 0.0 | 1.7 | 0.00 | 0.00 | 0.00 | 91 | 1017.7 |
| 20260901050239 | 56 | 297 | 0.0 | 1.7 | 0.00 | 0.00 | 0.00 | 91 | 1017.7 |
| 20260901045738 | 56 | 287 | 0.9 | 1.7 | 0.00 | 0.00 | 0.00 | 92 | 1017.8 |
| 20260901045238 | 56 | 326 | 0.0 | 1.7 | 0.00 | 0.00 | 0.00 | 92 | 1017.7 |
| 20260901044739 | 56 | 286 | 0.0 | 0.9 | 0.00 | 0.00 | 0.00 | 91 | 1017.7 |
| 20260901044238 | 55 | 285 | 0.0 | 1.7 | 0.00 | 0.00 | 0.00 | 91 | 1017.7 |
| 20260901043739 | 55 | 276 | 0.0 | 1.7 | 0.00 | 0.00 | 0.00 | 91 | 1017.7 |
| 20260901042739 | 56 | 285 | 0.0 | 0.9 | 0.00 | 0.00 | 0.00 | 90 | 1017.7 |
| 20260901042240 | 56 | 287 | 0.0 | 0.9 | 0.00 | 0.00 | 0.00 | 91 | 1017.7 |
| 20260901041740 | 56 | 311 | 0.0 | 0.0 | 0.00 | 0.00 | 0.00 | 90 | 1017.7 |
| 20260901041239 | 56 | 311 | 0.0 | 0.0 | 0.00 | 0.00 | 0.00 | 90 | 1017.7 |
| 20260901040740 | 56 | 311 | 0.0 | 0.0 | 0.00 | 0.00 | 0.00 | 90 | 1017.7 |
| 20260901035747 | 56 | 294 | 0.0 | 0.9 | 0.00 | 0.00 | 0.00 | 89 | 1017.6 |
| 20260901034745 | 56 | 287 | 0.0 | 0.9 | 0.00 | 0.00 | 0.00 | 90 | 1017.6 |
| 20260901034244 | 56 | 291 | 0.0 | 0.0 | 0.00 | 0.00 | 0.00 | 89 | 1017.6 |
| 20260901033742 | 56 | 291 | 0.0 | 0.0 | 0.00 | 0.00 | 0.00 | 89 | 1017.6 |
| 20260901033239 | 56 | 291 | 0.0 | 0.0 | 0.00 | 0.00 | 0.00 | 89 | 1017.7 |
| 20260901032739 | 56 | 291 | 0.0 | 0.9 | 0.00 | 0.00 | 0.00 | 89 | 1017.7 |
| 20260901032240 | 56 | 287 | 0.0 | 0.9 | 0.00 | 0.00 | 0.00 | 90 | 1017.7 |
| 20260901031240 | 56 | 320 | 0.9 | 2.6 | 0.00 | 0.00 | 0.00 | 91 | 1017.7 |
| 20260901030740 | 55 | 288 | 0.0 | 0.9 | 0.00 | 0.00 | 0.00 | 91 | 1017.7 |
| 20260901030239 | 55 | 291 | 0.0 | 1.7 | 0.00 | 0.00 | 0.00 | 91 | 1017.8 |
| 20260901025740 | 55 | 138 | 0.0 | 0.9 | 0.00 | 0.00 | 0.00 | 91 | 1017.7 |
| 20260901025240 | 55 | 121 | 0.0 | 0.9 | 0.00 | 0.00 | 0.00 | 92 | 1017.7 |
| 20260901024739 | 55 | 115 | 0.0 | 4.3 | 0.00 | 0.00 | 0.00 | 92 | 1017.7 |
| 20260901024240 | 54 | 106 | 0.0 | 0.0 | 0.00 | 0.00 | 0.00 | 93 | 1017.8 |
| 20260901023741 | 54 | 145 | 0.0 | 0.0 | 0.00 | 0.00 | 0.00 | 93 | 1017.8 |
| 20260901023240 | 54 | 145 | 0.0 | 0.0 | 0.00 | 0.00 | 0.00 | 92 | 1017.9 |
| 20260901022741 | 54 | 145 | 0.0 | 0.0 | 0.00 | 0.00 | 0.00 | 93 | 1017.9 |
| 20260901022240 | 54 | 150 | 0.0 | 0.0 | 0.00 | 0.00 | 0.00 | 93 | 1017.9 |
| 20260901021741 | 54 | 150 | 0.0 | 0.0 | 0.00 | 0.00 | 0.00 | 93 | 1017.9 |
| 20260901021240 | 53 | 149 | 0.0 | 0.0 | 0.00 | 0.00 | 0.00 | 93 | 1017.8 |
| 20260901020740 | 53 | 148 | 0.0 | 0.0 | 0.00 | 0.00 | 0.00 | 94 | 1017.8 |
| 20260901020240 | 52 | 148 | 0.0 | 0.0 | 0.00 | 0.00 | 0.00 | 93 | 1017.9 |
| 20260901015739 | 52 | 148 | 0.0 | 0.0 | 0.00 | 0.00 | 0.00 | 93 | 1017.9 |
| 20260901014739 | 52 | 148 | 0.0 | 0.0 | 0.00 | 0.00 | 0.00 | 92 | 1018.0 |
| 20260901014240 | 52 | 148 | 0.0 | 0.0 | 0.00 | 0.00 | 0.00 | 92 | 1018.0 |
| 20260901013740 | 52 | 69 | 0.0 | 0.0 | 0.00 | 0.00 | 0.00 | 92 | 1018.0 |
| 20260901013240 | 52 | 69 | 0.0 | 0.0 | 0.00 | 0.00 | 0.00 | 92 | 1018.0 |
| 20260901012742 | 52 | 69 | 0.0 | 0.0 | 0.00 | 0.00 | 0.00 | 91 | 1018.0 |
| 20260901012241 | 52 | 69 | 0.0 | 0.0 | 0.00 | 0.00 | 0.00 | 92 | 1018.0 |
| 20260901010740 | 52 | 69 | 0.0 | 0.0 | 0.00 | 0.00 | 0.00 | 92 | 1018.0 |
| 20260901005740 | 52 | 5 | 0.0 | 0.0 | 0.00 | 0.00 | 0.00 | 91 | 1018.0 |
| 20260901004740 | 52 | 102 | 0.0 | 0.0 | 0.00 | 0.00 | 0.00 | 91 | 1018.0 |
| 20260901004241 | 52 | 102 | 0.0 | 0.0 | 0.00 | 0.00 | 0.00 | 91 | 1018.0 |
| 20260901003741 | 52 | 100 | 0.0 | 0.0 | 0.00 | 0.00 | 0.00 | 91 | 1018.1 |
| 20260901003241 | 52 | 99 | 0.0 | 0.0 | 0.00 | 0.00 | 0.00 | 91 | 1018.1 |
| 20260901002742 | 52 | 99 | 0.0 | 0.0 | 0.00 | 0.00 | 0.00 | 90 | 1018.1 |
| 20260901002240 | 52 | 99 | 0.0 | 0.0 | 0.00 | 0.00 | 0.00 | 90 | 1018.1 |
| 20260901001741 | 52 | 99 | 0.0 | 0.0 | 0.00 | 0.00 | 0.00 | 90 | 1018.1 |
| 20260901000741 | 52 | 99 | 0.0 | 0.0 | 0.00 | 0.00 | 0.00 | 90 | 1018.1 |
| 20260831235741 | 52 | 99 | 0.0 | 0.0 | 0.00 | 0.00 | 0.00 | 90 | 1018.1 |
| 20260831235240 | 52 | 99 | 0.0 | 0.0 | 0.00 | 0.00 | 0.00 | 90 | 1018.1 |
| 20260831234241 | 52 | 140 | 0.0 | 0.0 | 0.00 | 0.00 | 0.00 | 90 | 1018.3 |
| 20260831233740 | 52 | 202 | 0.0 | 0.0 | 0.00 | 0.00 | 0.00 | 90 | 1018.3 |
| 20260831233241 | 52 | 142 | 0.0 | 0.0 | 0.00 | 0.00 | 0.00 | 90 | 1018.3 |
| 20260831232741 | 52 | 140 | 0.0 | 0.0 | 0.00 | 0.00 | 0.00 | 89 | 1018.3 |
| 20260831232241 | 53 | 155 | 0.0 | 0.0 | 0.00 | 0.00 | 0.00 | 89 | 1018.3 |
| 20260831231742 | 53 | 180 | 0.0 | 0.0 | 0.00 | 0.00 | 0.00 | 89 | 1018.3 |
| 20260831230805 | 53 | 228 | 0.0 | 0.0 | 0.00 | 0.00 | 0.00 | 89 | 1018.4 |
| 20260831225742 | 53 | 228 | 0.0 | 0.0 | 0.00 | 0.00 | 0.00 | 88 | 1018.4 |
| 20260831224742 | 53 | 228 | 0.0 | 0.0 | 0.00 | 0.00 | 0.00 | 88 | 1018.4 |
| 20260831224241 | 54 | 228 | 0.0 | 0.0 | 0.00 | 0.00 | 0.00 | 87 | 1018.4 |
| 20260831223741 | 54 | 228 | 0.0 | 0.0 | 0.00 | 0.00 | 0.00 | 87 | 1018.5 |
| 20260831223241 | 54 | 228 | 0.0 | 0.0 | 0.00 | 0.00 | 0.00 | 87 | 1018.5 |
| 20260831222743 | 54 | 228 | 0.0 | 0.0 | 0.00 | 0.00 | 0.00 | 86 | 1018.5 |
| 20260831221741 | 55 | 272 | 0.0 | 0.9 | 0.00 | 0.00 | 0.00 | 85 | 1018.5 |
| 20260831221243 | 55 | 272 | 0.0 | 0.0 | 0.00 | 0.00 | 0.00 | 85 | 1018.4 |
| 20260831220742 | 55 | 285 | 0.0 | 0.0 | 0.00 | 0.00 | 0.00 | 84 | 1018.3 |
| 20260831220242 | 56 | 285 | 0.0 | 0.0 | 0.00 | 0.00 | 0.00 | 84 | 1018.3 |
| 20260831215742 | 56 | 285 | 0.0 | 0.0 | 0.00 | 0.00 | 0.00 | 84 | 1018.4 |
| 20260831214742 | 56 | 285 | 0.0 | 0.0 | 0.00 | 0.00 | 0.00 | 85 | 1018.4 |
| 20260831214242 | 56 | 285 | 0.0 | 0.0 | 0.00 | 0.00 | 0.00 | 85 | 1018.3 |
| 20260831213742 | 56 | 285 | 0.0 | 0.0 | 0.00 | 0.00 | 0.00 | 85 | 1018.2 |
| 20260831213242 | 56 | 285 | 0.0 | 0.0 | 0.00 | 0.00 | 0.00 | 84 | 1018.2 |
| 20260831212742 | 57 | 285 | 0.0 | 0.9 | 0.00 | 0.00 | 0.00 | 84 | 1018.2 |
| 20260831212242 | 57 | 285 | 0.0 | 0.9 | 0.00 | 0.00 | 0.00 | 85 | 1018.1 |
| 20260831211742 | 57 | 285 | 0.0 | 0.0 | 0.00 | 0.00 | 0.00 | 84 | 1018.1 |
| 20260831211244 | 57 | 285 | 0.0 | 0.0 | 0.00 | 0.00 | 0.00 | 84 | 1018.2 |
| 20260831210742 | 57 | 284 | 0.0 | 0.0 | 0.00 | 0.00 | 0.00 | 84 | 1018.1 |
| 20260831205742 | 58 | 284 | 0.0 | 0.0 | 0.00 | 0.00 | 0.00 | 84 | 1018.2 |
| 20260831205242 | 58 | 284 | 0.0 | 0.0 | 0.00 | 0.00 | 0.00 | 83 | 1018.2 |
| 20260831203743 | 59 | 298 | 0.0 | 0.9 | 0.00 | 0.01 | 0.00 | 83 | 1018.1 |
| 20260831203242 | 59 | 291 | 0.0 | 0.9 | 0.00 | 0.01 | 0.00 | 83 | 1018.1 |
| 20260831202742 | 59 | 292 | 0.0 | 0.9 | 0.00 | 0.01 | 0.00 | 83 | 1018.0 |
| 20260831202244 | 59 | 292 | 0.0 | 0.0 | 0.00 | 0.01 | 0.00 | 82 | 1018.0 |
| 20260831201742 | 60 | 292 | 0.0 | 0.0 | 0.00 | 0.01 | 0.00 | 81 | 1018.0 |
| 20260831201243 | 60 | 292 | 0.0 | 0.0 | 0.00 | 0.01 | 0.00 | 81 | 1018.0 |
| 20260831200744 | 60 | 292 | 0.0 | 0.0 | 0.00 | 0.01 | 0.00 | 80 | 1018.0 |
| 20260831200243 | 61 | 292 | 0.0 | 0.0 | 0.00 | 0.01 | 0.00 | 80 | 1018.0 |
| 20260831195742 | 61 | 292 | 0.0 | 0.9 | 0.00 | 0.01 | 0.00 | 80 | 1017.9 |
| 20260831195243 | 61 | 292 | 0.0 | 0.9 | 0.00 | 0.01 | 0.00 | 79 | 1017.9 |
| 20260831194744 | 61 | 293 | 0.0 | 0.0 | 0.00 | 0.01 | 0.00 | 79 | 1017.9 |
| 20260831194243 | 62 | 293 | 0.0 | 0.0 | 0.00 | 0.01 | 0.00 | 79 | 1017.8 |
| 20260831193745 | 62 | 293 | 0.0 | 0.0 | 0.00 | 0.01 | 0.00 | 79 | 1017.8 |
| 20260831192743 | 62 | 293 | 0.0 | 0.0 | 0.00 | 0.02 | 0.00 | 78 | 1017.7 |
| 20260831192243 | 62 | 293 | 0.0 | 0.0 | 0.00 | 0.02 | 0.00 | 78 | 1017.7 |
| 20260831191743 | 62 | 293 | 0.0 | 0.9 | 0.00 | 0.02 | 0.00 | 77 | 1017.6 |
| 20260831190744 | 63 | 295 | 0.0 | 0.9 | 0.00 | 0.02 | 0.00 | 77 | 1017.6 |
| 20260831190243 | 63 | 289 | 0.0 | 0.0 | 0.00 | 0.02 | 0.00 | 76 | 1017.5 |
| 20260831185743 | 63 | 301 | 0.0 | 1.7 | 0.00 | 0.02 | 0.00 | 76 | 1017.5 |
| 20260831184745 | 63 | 277 | 0.9 | 2.6 | 0.00 | 0.02 | 0.00 | 75 | 1017.4 |
| 20260831184243 | 63 | 290 | 0.9 | 2.6 | 0.00 | 0.02 | 0.00 | 74 | 1017.4 |
| 20260831183743 | 63 | 284 | 1.7 | 2.6 | 0.00 | 0.02 | 0.00 | 74 | 1017.5 |
| 20260831183244 | 64 | 284 | 0.9 | 4.3 | 0.00 | 0.02 | 0.00 | 73 | 1017.4 |
| 20260831182744 | 64 | 277 | 1.7 | 5.2 | 0.00 | 0.02 | 0.00 | 72 | 1017.4 |
| 20260831182243 | 64 | 271 | 2.6 | 6.1 | 0.00 | 0.02 | 0.00 | 71 | 1017.4 |
| 20260831180744 | 66 | 287 | 3.5 | 6.1 | 0.00 | 0.02 | 0.00 | 68 | 1017.3 |
| 20260831180244 | 66 | 287 | 3.5 | 6.1 | 0.00 | 0.02 | 0.00 | 68 | 1017.2 |
| 20260831175745 | 66 | 295 | 4.3 | 8.7 | 0.00 | 0.02 | 0.00 | 67 | 1017.1 |
| 20260831175243 | 67 | 306 | 4.3 | 8.7 | 0.00 | 0.02 | 0.00 | 67 | 1017.1 |
| 20260831174745 | 67 | 286 | 4.3 | 6.1 | 0.00 | 0.02 | 0.00 | 68 | 1017.0 |
| 20260831174243 | 67 | 279 | 4.3 | 8.7 | 0.00 | 0.02 | 0.00 | 68 | 1017.0 |
| 20260831173744 | 67 | 296 | 5.2 | 7.0 | 0.00 | 0.02 | 0.00 | 68 | 1017.0 |
| 20260831173245 | 67 | 304 | 4.3 | 7.0 | 0.00 | 0.02 | 0.00 | 68 | 1017.0 |
| 20260831172744 | 67 | 282 | 1.7 | 5.2 | 0.00 | 0.02 | 0.00 | 69 | 1017.0 |
| 20260831172244 | 66 | 291 | 1.7 | 7.0 | 0.00 | 0.02 | 0.00 | 70 | 1017.0 |
| 20260831171745 | 66 | 286 | 2.6 | 5.2 | 0.00 | 0.03 | 0.00 | 70 | 1017.0 |
| 20260831171244 | 66 | 284 | 2.6 | 5.2 | 0.00 | 0.03 | 0.00 | 70 | 1016.9 |
| 20260831170244 | 66 | 297 | 2.6 | 5.2 | 0.00 | 0.03 | 0.00 | 69 | 1016.7 |
| 20260831165743 | 66 | 285 | 1.7 | 5.2 | 0.00 | 0.04 | 0.00 | 69 | 1016.8 |
| 20260831165245 | 66 | 296 | 1.7 | 5.2 | 0.00 | 0.04 | 0.00 | 69 | 1016.7 |
| 20260831164744 | 66 | 284 | 1.7 | 5.2 | 0.00 | 0.04 | 0.00 | 69 | 1016.7 |
| 20260831164246 | 66 | 282 | 0.9 | 6.1 | 0.00 | 0.04 | 0.00 | 69 | 1016.7 |
| 20260831163244 | 66 | 274 | 2.6 | 5.2 | 0.00 | 0.04 | 0.00 | 68 | 1016.6 |
| 20260831162746 | 66 | 298 | 2.6 | 5.2 | 0.00 | 0.04 | 0.00 | 68 | 1016.7 |
| 20260831162244 | 66 | 297 | 1.7 | 5.2 | 0.00 | 0.04 | 0.00 | 68 | 1016.6 |
| 20260831161746 | 66 | 290 | 2.6 | 6.1 | 0.00 | 0.04 | 0.00 | 68 | 1016.6 |
| 20260831161244 | 66 | 289 | 2.6 | 7.0 | 0.00 | 0.04 | 0.00 | 67 | 1016.6 |
| 20260831160744 | 66 | 303 | 4.3 | 7.8 | 0.00 | 0.04 | 0.00 | 67 | 1016.6 |
| 20260831160244 | 66 | 299 | 0.9 | 5.2 | 0.00 | 0.04 | 0.00 | 67 | 1016.6 |
| 20260831155745 | 66 | 286 | 2.6 | 6.1 | 0.00 | 0.05 | 0.00 | 67 | 1016.6 |